�N����,����,�~����,�C��,���x,�C��,����,���ϕ���,�ő�u�ԕ���,�ő厞����,���˗�,�I�_���x,�n�����x,�ő啗���N��,DTYPE
"22/12/11","00:10",0.0,6.4,93.3,1008.3,322.7,2.6,3.7,339.6,0.00,5.4,10.1,"00:01:12",1
"22/12/11","00:20",0.0,6.7,93.2,1008.6,296.1,2.2,4.1,326.2,0.00,5.7,10.1,"00:10:48",1
"22/12/11","00:30",0.0,6.4,93.4,1008.3,305.4,2.0,2.7,316.0,0.00,5.5,10.1,"00:20:40",1
"22/12/11","00:40",0.0,6.2,93.7,1008.3,304.6,1.2,2.4,307.5,0.00,5.3,10.1,"00:30:24",1
"22/12/11","00:50",0.0,6.0,93.9,1008.3,312.5,2.3,3.4,321.0,0.00,5.1,10.1,"00:44:24",1
"22/12/11","01:00",0.0,5.9,94.2,1008.3,299.6,1.7,4.1,311.9,0.00,5.1,9.9,"00:59:44",1
"22/12/11","01:10",0.0,6.6,94.2,1008.1,315.1,1.7,3.5,329.5,0.00,5.8,9.8,"01:02:08",1
"22/12/11","01:20",0.0,6.4,94.3,1008.1,288.7,1.5,1.9,274.0,0.00,5.6,9.9,"01:16:08",1
"22/12/11","01:30",0.0,6.4,94.5,1008.6,297.1,2.1,2.8,309.5,0.00,5.6,10.0,"01:29:12",1
"22/12/11","01:40",0.0,7.0,94.6,1008.8,303.8,3.0,5.6,322.3,0.00,6.2,9.8,"01:37:12",1
"22/12/11","01:50",0.0,7.6,94.1,1008.6,319.1,3.7,5.5,313.7,0.00,6.8,9.8,"01:47:20",1
"22/12/11","02:00",0.0,7.8,93.6,1008.6,316.3,3.5,4.8,319.0,0.00,6.9,9.9,"01:52:08",1
"22/12/11","02:10",0.0,7.9,93.3,1009.0,314.2,3.4,5.2,317.9,0.00,6.9,9.9,"02:09:52",1
"22/12/11","02:20",0.0,8.1,92.8,1008.8,322.5,3.7,5.5,326.5,0.00,7.0,9.8,"02:14:32",1
"22/12/11","02:30",0.0,8.1,92.2,1008.8,313.9,3.4,4.8,329.1,0.00,7.0,9.6,"02:22:00",1
"22/12/11","02:40",0.0,8.1,91.6,1009.0,295.9,3.5,5.6,312.4,0.00,6.9,9.8,"02:39:28",1
"22/12/11","02:50",0.0,8.1,91.0,1009.0,311.3,3.7,5.4,320.4,0.00,6.8,9.7,"02:43:04",1
"22/12/11","03:00",0.0,8.1,90.4,1008.6,316.6,2.5,4.3,335.5,0.00,6.7,9.8,"02:52:16",1
"22/12/11","03:10",0.0,7.7,90.1,1008.6,321.1,2.7,3.5,329.3,0.00,6.2,9.9,"03:07:20",1
"22/12/11","03:20",0.0,7.3,90.1,1008.6,308.4,2.5,3.1,323.3,0.00,5.8,10.0,"03:11:12",1
"22/12/11","03:30",0.0,7.2,90.3,1008.6,303.4,2.2,2.9,316.1,0.00,5.8,9.6,"03:27:12",1
"22/12/11","03:40",0.0,7.1,90.5,1008.3,303.0,2.5,3.5,303.9,0.00,5.7,9.6,"03:36:48",1
"22/12/11","03:50",0.0,7.0,90.6,1008.3,302.4,2.1,2.9,323.2,0.00,5.6,9.6,"03:42:40",1
"22/12/11","04:00",0.0,6.7,90.8,1008.1,291.2,1.6,2.1,285.8,0.00,5.3,9.6,"03:53:28",1
"22/12/11","04:10",0.0,6.7,91.2,1008.1,292.6,2.0,2.6,309.6,0.00,5.4,9.8,"04:04:32",1
"22/12/11","04:20",0.0,6.9,91.5,1008.1,288.1,2.5,3.2,300.8,0.00,5.7,9.9,"04:16:48",1
"22/12/11","04:30",0.0,7.0,91.7,1008.3,286.8,2.1,2.5,275.5,0.00,5.8,9.7,"04:28:24",1
"22/12/11","04:40",0.0,7.1,91.9,1008.1,302.4,1.8,3.4,324.6,0.00,5.9,9.7,"04:34:08",1
"22/12/11","04:50",0.0,7.1,92.1,1007.8,304.7,1.2,1.9,312.3,0.00,5.9,9.7,"04:47:12",1
"22/12/11","05:00",0.0,6.9,92.3,1007.8,307.2,2.7,3.5,316.9,0.00,5.8,9.7,"04:57:04",1
"22/12/11","05:10",0.0,6.8,92.6,1008.1,307.5,2.6,2.9,319.1,0.00,5.7,9.6,"05:00:16",1
"22/12/11","05:20",0.0,6.7,92.9,1007.8,308.0,2.5,3.2,318.5,0.00,5.7,9.6,"05:15:12",1
"22/12/11","05:30",0.0,6.7,93.0,1007.4,289.7,1.6,1.9,286.0,0.00,5.7,9.8,"05:22:40",1
"22/12/11","05:40",0.0,6.6,93.2,1007.6,301.2,1.7,2.6,310.5,0.00,5.6,9.7,"05:30:48",1
"22/12/11","05:50",0.0,6.7,93.5,1007.8,310.2,2.5,2.6,322.5,0.00,5.8,9.7,"05:42:00",1
"22/12/11","06:00",0.0,6.6,93.6,1008.1,300.3,2.0,2.7,310.4,0.00,5.7,9.7,"05:51:52",1
"22/12/11","06:10",0.0,6.6,93.9,1007.8,308.3,0.8,2.9,307.4,0.00,5.7,9.7,"06:08:56",1
"22/12/11","06:20",0.0,6.5,94.0,1007.6,289.4,2.0,2.6,310.4,0.00,5.6,9.7,"06:10:16",1
"22/12/11","06:30",0.0,6.5,94.3,1007.6,294.5,2.1,2.7,318.4,0.00,5.7,9.6,"06:29:44",1
"22/12/11","06:40",0.0,6.5,94.5,1007.8,311.9,2.1,2.7,315.4,0.00,5.7,9.6,"06:30:24",1
"22/12/11","06:50",0.0,6.4,94.7,1007.6,304.8,2.5,3.4,323.2,0.00,5.7,9.7,"06:43:28",1
"22/12/11","07:00",0.0,6.2,94.9,1007.8,301.4,1.7,2.6,315.6,0.00,5.5,9.8,"06:59:44",1
"22/12/11","07:10",0.0,6.5,95.1,1008.3,323.3,2.1,3.1,314.8,0.00,5.8,9.8,"07:01:52",1
"22/12/11","07:20",0.0,6.4,95.1,1008.1,294.0,2.0,2.8,319.5,0.00,5.7,9.7,"07:10:32",1
"22/12/11","07:30",0.0,6.5,95.3,1008.1,294.8,0.8,2.2,270.5,0.00,5.8,9.7,"07:20:08",1
"22/12/11","07:40",0.0,6.6,95.4,1008.3,325.5,1.0,2.8,309.8,0.00,6.0,9.7,"07:38:32",1
"22/12/11","07:50",0.0,6.4,95.5,1008.1,309.4,2.7,3.3,320.3,0.00,5.8,9.6,"07:44:16",1
"22/12/11","08:00",0.0,6.2,95.6,1008.3,300.0,1.8,2.9,319.3,0.00,5.6,9.6,"07:50:40",1
"22/12/11","08:10",0.0,6.1,95.8,1008.3,300.3,1.6,2.1,308.0,0.00,5.5,9.6,"08:03:36",1
"22/12/11","08:20",0.0,5.9,96.0,1008.3,300.2,1.7,2.1,316.1,0.00,5.4,9.7,"08:16:48",1
"22/12/11","08:30",0.0,6.5,96.2,1008.3,311.0,1.6,3.4,319.2,0.03,6.0,9.7,"08:24:40",1
"22/12/11","08:40",0.0,6.7,96.2,1008.3,290.2,0.7,1.6,287.9,0.03,6.2,9.4,"08:30:56",1
"22/12/11","08:50",0.0,7.2,96.2,1008.3,319.4,1.6,2.8,317.9,0.03,6.7,9.7,"08:47:12",1
"22/12/11","09:00",0.0,7.5,96.1,1008.6,284.5,1.7,2.8,326.1,0.03,7.0,9.6,"08:50:48",1
"22/12/11","09:10",0.0,7.6,96.1,1009.0,284.8,2.0,3.5,258.2,0.03,7.1,9.6,"09:05:20",1
"22/12/11","09:20",0.0,8.0,96.0,1008.8,283.8,1.6,2.4,256.8,0.03,7.4,9.7,"09:14:24",1
"22/12/11","09:30",0.0,8.3,95.9,1008.8,289.8,1.5,2.0,263.8,0.03,7.7,9.4,"09:22:32",1
"22/12/11","09:40",0.0,8.4,95.6,1009.3,294.7,1.6,2.6,317.0,0.04,7.8,9.5,"09:35:52",1
"22/12/11","09:50",0.0,8.6,95.3,1009.3,277.6,1.8,2.7,257.6,0.09,7.9,9.6,"09:47:36",1
"22/12/11","10:00",0.0,8.7,95.0,1009.0,277.0,1.5,1.9,269.0,0.04,8.0,9.6,"09:50:08",1
"22/12/11","10:10",0.0,8.9,94.6,1009.3,291.5,1.0,1.9,311.3,0.04,8.1,9.7,"10:03:04",1
"22/12/11","10:20",0.0,9.0,94.3,1009.3,299.9,0.3,1.1,298.3,0.07,8.2,9.7,"10:19:12",1
"22/12/11","10:30",0.0,9.4,93.7,1009.3,265.6,1.0,1.7,258.2,0.12,8.5,9.4,"10:27:14",1
"22/12/11","10:40",0.0,9.6,92.9,1009.0,258.2,0.7,1.6,245.6,0.11,8.5,9.5,"10:35:36",1
"22/12/11","10:50",0.0,9.8,92.1,1009.0,242.6,0.7,1.4,234.9,0.10,8.6,9.4,"10:47:36",1
"22/12/11","11:00",0.0,10.1,91.2,1009.3,232.9,0.7,1.2,237.8,0.16,8.8,9.7,"10:51:20",1
"22/12/11","11:10",0.0,10.8,89.7,1009.0,195.1,0.7,1.9,127.0,0.35,9.2,9.7,"11:07:08",1
"22/12/11","11:20",0.0,11.6,87.3,1008.6,143.5,0.7,2.1,110.0,0.37,9.6,9.9,"11:13:36",1
"22/12/11","11:30",0.0,12.0,83.5,1008.6,123.5,1.2,2.4,115.4,0.39,9.3,9.8,"11:21:28",1
"22/12/11","11:40",0.0,13.0,79.7,1008.1,178.3,1.0,2.5,184.6,0.41,9.6,9.8,"11:30:02",1
"22/12/11","11:50",0.0,14.0,72.1,1008.3,281.9,3.0,5.6,327.4,0.42,9.1,9.9,"11:48:56",1
"22/12/11","12:00",0.0,14.5,69.0,1008.1,294.9,2.5,5.5,337.1,0.42,8.9,10.0,"11:51:44",1
"22/12/11","12:10",0.0,14.5,66.4,1007.6,291.6,3.0,5.9,313.7,0.43,8.4,9.9,"12:03:44",1
"22/12/11","12:20",0.0,14.7,64.2,1007.6,299.2,3.0,5.2,272.1,0.44,8.1,10.1,"12:18:16",1
"22/12/11","12:30",0.0,14.8,63.8,1007.1,313.3,3.5,8.6,338.9,0.46,8.1,10.2,"12:28:00",1
"22/12/11","12:40",0.0,14.7,63.6,1006.9,322.7,3.6,7.1,350.1,0.44,7.9,10.4,"12:35:36",1
"22/12/11","12:50",0.0,14.2,64.1,1006.4,315.5,3.1,6.3,348.1,0.32,7.6,10.4,"12:47:20",1
"22/12/11","13:00",0.0,14.5,65.5,1006.4,296.0,2.2,4.1,261.6,0.39,8.2,10.3,"12:56:16",1
"22/12/11","13:10",0.0,14.7,64.2,1006.4,279.1,2.8,5.5,263.3,0.48,8.1,10.5,"13:05:28",1
"22/12/11","13:20",0.0,14.7,63.2,1006.2,289.7,2.6,5.2,300.8,0.45,7.8,10.4,"13:19:36",1
"22/12/11","13:30",0.0,14.5,64.8,1006.0,300.5,2.8,6.0,301.4,0.43,8.0,10.4,"13:24:48",1
"22/12/11","13:40",0.0,14.3,65.9,1006.0,292.4,3.5,7.2,238.7,0.40,8.1,10.6,"13:35:12",1
"22/12/11","13:50",0.0,12.9,69.8,1006.0,300.7,3.2,6.3,341.3,0.23,7.6,10.7,"13:47:26",1
"22/12/11","14:00",0.0,12.9,71.8,1005.7,291.0,2.5,5.0,327.6,0.23,8.0,10.7,"13:54:44",1
"22/12/11","14:10",0.0,13.2,71.5,1006.0,301.9,3.0,5.4,343.6,0.35,8.2,10.7,"14:04:40",1
"22/12/11","14:20",0.0,13.3,71.5,1006.0,300.9,2.3,5.0,313.6,0.25,8.3,11.0,"14:12:32",1
"22/12/11","14:30",0.0,12.8,72.3,1005.7,295.6,2.6,4.3,340.1,0.12,8.0,10.7,"14:26:48",1
"22/12/11","14:40",0.0,12.6,72.8,1005.7,296.9,2.6,4.2,336.0,0.11,7.9,11.0,"14:33:14",1
"22/12/11","14:50",0.0,12.2,74.6,1005.7,308.9,3.4,6.8,334.7,0.08,7.9,11.2,"14:47:38",1
"22/12/11","15:00",0.0,11.7,77.5,1005.2,304.7,3.0,5.6,333.5,0.09,7.9,10.8,"14:53:28",1
"22/12/11","15:10",0.0,11.5,80.5,1005.7,301.9,2.6,5.6,311.3,0.12,8.3,11.2,"15:01:14",1
"22/12/11","15:20",0.0,11.7,82.2,1006.0,313.6,3.4,6.2,347.5,0.19,8.8,11.1,"15:13:06",1
"22/12/11","15:30",0.0,11.9,82.7,1005.7,284.7,2.6,4.9,256.0,0.16,9.1,11.0,"15:22:16",1
"22/12/11","15:40",0.0,12.0,81.9,1006.0,294.5,2.3,5.6,336.7,0.12,9.0,11.2,"15:39:28",1
"22/12/11","15:50",0.0,11.6,80.9,1006.0,290.2,2.8,4.8,322.6,0.05,8.5,11.0,"15:49:12",1
"22/12/11","16:00",0.0,11.4,81.0,1006.0,300.7,2.8,5.0,259.2,0.03,8.3,11.2,"15:53:28",1
"22/12/11","16:10",0.0,11.2,80.6,1006.7,310.5,3.1,6.2,316.4,0.03,8.0,10.9,"16:03:44",1
"22/12/11","16:20",0.0,11.1,79.6,1006.7,329.7,3.5,6.6,316.2,0.01,7.8,11.2,"16:14:56",1
"22/12/11","16:30",0.0,10.9,78.9,1007.1,318.2,3.5,6.5,345.2,0.01,7.4,11.0,"16:26:46",1
"22/12/11","16:40",0.0,10.8,78.7,1006.9,324.5,3.7,6.8,302.0,0.01,7.3,11.1,"16:31:36",1
"22/12/11","16:50",0.0,10.4,78.7,1006.9,325.0,4.0,7.8,307.2,0.00,6.9,11.1,"16:49:26",1
"22/12/11","17:00",0.0,10.2,78.8,1007.1,330.0,4.4,7.5,343.5,0.00,6.7,11.3,"16:58:06",1
"22/12/11","17:10",0.0,10.2,78.7,1007.4,326.1,4.1,7.5,305.4,0.00,6.7,11.2,"17:07:00",1
"22/12/11","17:20",0.0,10.0,78.5,1007.4,331.5,4.4,6.6,342.4,0.00,6.5,11.2,"17:16:00",1
"22/12/11","17:30",0.0,10.0,78.7,1007.6,332.9,5.0,9.6,341.5,0.00,6.5,11.2,"17:22:24",1
"22/12/11","17:40",0.0,9.9,78.7,1007.6,332.5,5.5,10.2,335.7,0.00,6.4,11.2,"17:36:08",1
"22/12/11","17:50",0.0,9.8,79.0,1007.6,331.9,4.4,8.6,325.2,0.00,6.4,11.1,"17:45:44",1
"22/12/11","18:00",0.0,9.6,79.1,1007.8,333.7,4.6,7.7,332.2,0.00,6.2,11.1,"17:52:00",1
"22/12/11","18:10",0.0,9.5,79.0,1008.1,334.4,4.4,7.7,349.1,0.00,6.1,11.0,"18:08:56",1
"22/12/11","18:20",0.0,9.6,78.7,1008.1,334.2,4.9,9.0,344.9,0.00,6.1,11.1,"18:18:32",1
"22/12/11","18:30",0.0,9.7,77.5,1008.1,324.6,5.4,8.1,342.7,0.00,6.0,11.0,"18:22:48",1
"22/12/11","18:40",0.0,9.6,76.9,1008.3,325.9,4.6,7.7,333.9,0.00,5.8,10.8,"18:38:00",1
"22/12/11","18:50",0.0,9.6,76.0,1008.8,332.8,4.6,7.4,329.7,0.00,5.6,11.0,"18:40:40",1
"22/12/11","19:00",0.0,9.6,74.6,1008.8,325.8,4.6,8.3,312.8,0.00,5.4,10.8,"18:55:36",1
"22/12/11","19:10",0.0,9.6,72.8,1009.0,332.2,3.6,8.7,335.1,0.00,5.0,10.7,"19:02:08",1
"22/12/11","19:20",0.0,9.6,71.9,1009.3,330.9,2.5,5.2,335.5,0.00,4.8,10.8,"19:19:56",1
"22/12/11","19:30",0.0,9.6,70.9,1009.0,339.1,4.2,8.0,354.2,0.00,4.6,10.8,"19:21:30",1
"22/12/11","19:40",0.0,9.7,69.8,1010.0,343.1,3.5,6.6,350.0,0.00,4.5,10.9,"19:38:20",1
"22/12/11","19:50",0.0,9.8,68.9,1009.5,353.1,3.2,6.7,350.2,0.00,4.4,10.8,"19:49:52",1
"22/12/11","20:00",0.0,9.9,68.5,1009.7,346.4,4.1,8.8,346.7,0.00,4.4,10.8,"19:54:58",1
"22/12/11","20:10",0.0,9.9,68.4,1010.2,338.1,3.9,6.7,349.4,0.00,4.4,10.6,"20:00:42",1
"22/12/11","20:20",0.0,9.8,69.1,1010.2,333.1,3.6,6.6,344.7,0.00,4.5,10.8,"20:14:50",1
"22/12/11","20:30",0.0,9.6,70.3,1010.7,327.7,3.6,6.4,337.4,0.00,4.5,10.6,"20:25:12",1
"22/12/11","20:40",0.0,9.3,71.2,1010.4,321.1,2.5,4.7,293.1,0.00,4.4,10.8,"20:31:36",1
"22/12/11","20:50",0.0,9.3,71.9,1010.9,307.4,2.6,4.8,337.2,0.00,4.5,10.6,"20:43:52",1
"22/12/11","21:00",0.0,9.2,72.9,1010.9,310.8,3.2,5.8,313.8,0.00,4.6,10.6,"20:53:24",1
"22/12/11","21:10",0.0,9.2,73.8,1011.2,322.9,3.0,8.1,346.5,0.00,4.8,10.7,"21:08:00",1
"22/12/11","21:20",0.0,9.0,74.7,1010.9,325.3,3.7,7.0,332.0,0.00,4.8,10.6,"21:16:00",1
"22/12/11","21:30",0.0,8.9,75.5,1011.2,326.4,3.5,7.7,328.1,0.00,4.8,10.4,"21:27:20",1
"22/12/11","21:40",0.0,8.8,76.2,1011.2,331.1,4.7,8.3,351.8,0.00,4.9,10.6,"21:39:48",1
"22/12/11","21:50",0.0,8.8,75.9,1011.6,326.1,3.5,7.8,348.8,0.00,4.8,10.6,"21:40:16",1
"22/12/11","22:00",0.0,8.7,75.8,1011.4,322.7,3.5,6.0,332.5,0.00,4.7,10.4,"21:51:12",1
"22/12/11","22:10",0.0,8.8,75.2,1011.4,324.7,3.9,9.0,311.0,0.00,4.7,10.4,"22:00:48",1
"22/12/11","22:20",0.0,8.7,75.0,1011.6,322.1,3.4,8.5,343.6,0.00,4.6,10.6,"22:17:54",1
"22/12/11","22:30",0.0,8.6,75.4,1011.4,327.3,3.1,6.0,295.0,0.00,4.5,10.3,"22:25:12",1
"22/12/11","22:40",0.0,8.4,76.4,1011.6,312.8,3.1,6.8,324.1,0.00,4.5,10.5,"22:38:08",1
"22/12/11","22:50",0.0,8.4,77.3,1012.1,322.5,4.2,9.6,326.1,0.00,4.7,10.5,"22:44:48",1
"22/12/11","23:00",0.0,8.4,78.0,1011.9,323.1,3.6,8.0,302.4,0.00,4.8,10.6,"22:58:16",1
"22/12/11","23:10",0.0,8.3,78.6,1011.9,334.5,3.0,7.2,344.7,0.00,4.8,10.2,"23:06:32",1
"22/12/11","23:20",0.0,8.3,78.8,1011.9,302.3,2.3,5.9,322.6,0.00,4.9,10.3,"23:14:00",1
"22/12/11","23:30",0.0,8.3,79.1,1012.1,284.2,1.1,2.7,336.0,0.00,4.9,10.3,"23:26:16",1
"22/12/11","23:40",0.0,8.5,78.9,1012.6,330.8,2.0,4.3,324.1,0.00,5.1,10.3,"23:31:28",1
"22/12/11","23:50",0.0,8.6,78.6,1012.3,240.4,2.5,6.2,234.1,0.00,5.1,10.2,"23:42:24",1
"22/12/11","24:00",0.0,8.6,78.0,1012.6,278.7,2.2,5.1,315.5,0.00,5.0,10.2,"23:55:52",1
